Résultats de la compétition "championnat d'Alsace de Sprint" du 27-01-2008 organisée par le club 6803
     
  Télécharger le fichier CSV.  
     
     

 Circuit "Circuit A"

Licence Nom Prénom Temps CN
précédent
Score sur
la course
Différence
1518MULLERMarc0:17:0774696001-1468
10906COLINFranck0:17:4662155782-433
1896ERDINGERFabrice0:17:4972305765-1465
1911MEYERKirian0:18:3761215518-603
13040VILLARChristophe0:18:5762085420-788
12759SCHAMBERGERPierre0:20:3258305003-827
5743MOLLDavid0:21:3745954752+157
11440DUPOIRIEUXGilles0:21:5850954676-419
1221PICHOLBernard0:22:02N/A4662N/A
366VESCOVOJ-Albert0:22:0648124648-164
12807STRICHFrancois0:22:2959164569-1347
2796LEGALLAISJ-Luc0:22:5054774499-978
7256PIBAROTSteve0:23:0541044450+346
2372DIETSCHBernard0:23:1053374434-903
1910MEYERJ-Marc0:23:1351634424-739
2379BILQUEZEric0:23:4048674340-527
10901RAVENELPhilippe0:23:4442664328+62
1224PICHOLSebastien0:23:5240974304+207
6904POUPINFrank0:23:54N/A4298N/A
2369BRELLMANNHubert0:23:5846074286-321
18284ROESLELaurent0:24:0736484259+611
11430BERNAUERChristophe0:24:3052024193-1009
7573OUDINBernard0:24:4145564161-395
4938MASSONFabien0:24:4939344139+205
2894LEBIHANMarcel0:25:33N/A4020N/A
302BAGUEREYBaptiste0:25:4945713979-592
10998RENAUDBernard0:25:5840653956-109
1035CARABINThierry0:26:06N/A3936N/A
346LAHAUSSEOlivier0:26:1839703906-64
2370CHARLOTPatrick0:26:3041403876-264
2438MASSONFabien0:26:4334083845+437
16683NOEGELENFabian0:27:0536183793+175
3108GANZITTIAlexandre0:28:2149483623-1325
11505CORREYves0:28:2537993615-184
13178HOLLNicolas0:29:4636573451-206
4769STREBLERJ-Philippe0:30:3129643366+402
2282MORTELLIERBernard0:31:0537433305-438
6819HOUDAYERPhilippe0:31:1639213285-636
2558VOGTClaude0:31:4543283235-1093
5938EGGLIRoland0:33:1253783094-2284
15858CASASSASAntoine0:33:2835083069-439
3905JOUFFROYMichel0:33:3338593062-797
2555RIAULTBernard0:33:4638993042-857
2263LEMBLEAndre0:34:1338893002-887
4317MASSONMichel0:35:0739112925-986
19680GOETTMANNJean-Pierre0:36:17N/A2831N/A
14223FISCHERGuy0:37:1132812762-519
13240ARNOULDBruno0:38:1532352685-550
17279FINOCCHIOJ-Luc0:38:2122932678+385
4391DODINYves0:39:3532722595-677
320BAGUEREYGilles0:40:1743782550-1828
15297BOEHMYves0:40:3025782536-42
370WOEHRLEGilbert0:41:1732592488-771
7900DELCOURTJ-Pierre0:42:0822812438+157
19024DALIBARDNicolas11:33:57N/A148N/A

  Indice de confiance du circuit (moyenne des différences entre CN et score sur la course des 3 à 10 premiers) : 156




 Circuit "Circuit B"

Licence Nom Prénom Temps CN
précédent
Score sur
la course
Différence
10329ARNOULDVincent0:14:1264875734-753
3292DODINCeline0:14:4768155508-1307
19776ENGESERJulian0:16:46N/A4856N/A
7259SUTTERAriane0:19:2244164205-211
13637KORCHAKLena0:20:0238374065+228
19774SCHULZEEija0:20:12N/A4031N/A
8639BILQUEZHugo0:20:2737193982+263
17713KAUFFMANNBaptiste0:20:3025423972+1430
6745STREBLERThomas0:21:1434563835+379
13688FRANCOISAline0:21:4934813732+251
13478KORCHAKNicole0:21:4937703732-38
10904RAVENELFanny0:22:0745113682-829
19028SCHMIDT-MORGENROTHJacques0:22:0925533676+1123
13692HAURYEvelyne0:22:3441363608-528
5638TARDYVictor0:22:5245093561-948
1223PICHOLSabrina0:22:55N/A3553N/A
16130ANCELJulie0:23:1135423512-30
13687EHRHARDTCecile0:23:4733903424+34
19775VIERTELJulia0:24:18N/A3351N/A
10496DUPOIRIEUXSophie0:24:4139333299-634
11511BRELLMANNMichel0:24:4442463292-954
10260LEBIHANSarah0:25:2035533214-339
363THIERRY-FISCHERChri0:25:4136323170-462
11510BRELLMANNEvelyne0:26:2432573084-173
10903RAVENELManon0:26:3036713073-598
15332MEYERPatricia0:27:1036382997-641
18467GOETTMANNPierre-Aimé0:27:5037952926-869
3904JOUFFROYChristine0:27:5932222910-312
10902RAVENELVeronique0:28:2131492872-277
14216VILLARIsabelle0:29:3938262746-1080
1909MEYERCorinne0:29:5434732723-750
7574OUDINM-Reine0:31:2330022595-407
310JOLYMauricette0:31:3629262577-349
2557VOGTChristiane0:32:2835332508-1025
2387SUTTEROdile0:33:0526042461-143
11748STRIBEAUMelanie0:33:3431562426-730
12374JACQUOTGhislaine0:38:4525022101-401
10907COLINCarine0:42:4115201908+388
368VESCOVOOdile0:44:1321061842-264
340FISCHERM-Dominique0:45:2417801794+14
3185PASCAUDClaire0:52:2525281553-975
19772JAEGERMeikeN/AN/A0N/A
4392DODINGenevieveN/A19590-1959
2937STRIBEAUMichelN/A54330-5433
7301DUPOIRIEUXCloeN/A51130-5113

  Indice de confiance du circuit (moyenne des différences entre CN et score sur la course des 3 à 10 premiers) : 191




 Circuit "Circuit C"

Licence Nom Prénom Temps CN
précédent
Score sur
la course
Différence
15979POIROTDelphine0:10:4838173428-389
18468GOETTMANNThomas0:15:4827352343-392
10909COLINCamille0:15:5525532326-227
17494ANDRIAMORAZAFIHANTASophie0:17:3327532109-644
13876PIBAROTJulien0:19:1023391931-408
19219RIETHMULLERMathilde0:23:14N/A1593N/A

  Indice de confiance du circuit (moyenne des différences entre CN et score sur la course des 3 à 10 premiers) : 237




 Circuit "Circuit D"

Licence Nom Prénom Temps CN
précédent
Score sur
la course
Différence
13638KORCHAKNathalie0:14:0331162619-497
19413HANAUERSébastien0:14:57N/A2461N/A
18304BEAUDEUXThéo0:16:4530782197-881
19221SEMBACHLauriane0:18:30N/A1989N/A
10910COLINLeo0:22:0421581667-491
13872JOUFFROYAxel0:24:1622571516-741
17495ANDRIAMORAZAFIHANTANirina0:25:2721951446-749

  Indice de confiance du circuit (moyenne des différences entre CN et score sur la course des 3 à 10 premiers) : 896




 Circuit "Circuit Jalonné"

Licence Nom Prénom Temps CN
précédent
Score sur
la course
Différence
13639KORCHAKEmilie0:13:0326722128-544
19220RIETHMULLERGabriel0:13:35N/A2044N/A
14215VILLARZoe0:14:2519561926-30
18699VILLARAlix0:14:2813211919+598
13873JOUFFROYSophia0:32:421640849-791
19027DALIBARDLéoN/AN/A0N/A
19025DALIBARDMonikaN/AN/A0N/A
19026DALIBARDMélanieN/AN/A0N/A

  Indice de confiance du circuit (moyenne des différences entre CN et score sur la course des 3 à 10 premiers) : 808






 Retour